Location: Unspecified
(43.4680°N, 87.1740°E)
Time: 23:28:00
(UTC+00:00)

Daily predictions for brighter satellites

Satellite Brightness Start Highest point End
(mag) Time Altitude Azimuth Time Altitude Azimuth Time Altitude Azimuth
CZ-4B R/B 3.2 14:23:08 10° SSE 14:28:27 73° ENE 14:33:44 10° N
MetOp-B 4.2 14:24:11 10° SSE 14:29:31 81° ENE 14:34:55 10° NNW
ADEOS 3.6 14:29:16 10° SSE 14:34:26 71° ENE 14:39:38 10° N
Cosmos 1743 Rocket 3.6 14:31:31 10° N 14:35:54 68° E 14:40:16 10° SSE
SKYMED 3 4.3 14:33:13 10° NNE 14:37:11 69° ESE 14:41:05 10° S
Lacrosse 5 rocket 4.1 14:37:36 10° NW 14:39:31 14° NNW 14:41:25 10° NNE
Helios 1A Rocket 2.3 14:36:43 10° NNE 14:39:47 52° ESE 14:42:50 10° S
Cosmos 1943 Rocket 2.2 14:36:05 10° SSW 14:41:41 68° ESE 14:47:16 10° NNE
USA 276 3.7 14:44:00 10° WNW 14:45:41 23° NNW 14:47:36 10° NE
BREEZE-M DEB (TANK) 3.5 14:45:40 10° WSW 14:46:34 12° SW 14:47:27 10° SSW
Cosmos 2082 Rocket 3.2 14:45:14 10° N 14:50:17 33° NE 14:55:16 10° ESE
Cosmos 1703 3.7 14:47:55 10° SSW 14:50:59 48° W 14:54:05 10° N
NOSS 2-1 (E) 3.0 14:47:19 10° SSW 14:51:35 74° SE 14:54:55 10° NE
Cosmos 2278 Rocket 2.2 14:46:48 10° S 14:52:22 62° ESE 14:57:57 10° NNE
BREEZE-M R/B 3.6 14:49:05 10° WSW 14:52:24 63° NNW 14:58:31 10° ENE
Cosmos 1633 Rocket 3.7 14:48:18 10° N 14:52:27 39° ENE 14:56:15 12° SE
SL-4 R/B 1.5 14:49:10 10° SW 14:52:33 58° SE 14:55:48 10° ENE
Timation 1 Rocket 4.5 14:47:11 10° NNW 14:53:10 77° WSW 14:59:05 10° SSE
Meteor 1-15 Rocket 4.4 14:50:14 10° N 14:55:53 60° ENE 15:01:21 10° SSE
Cosmos 1174 4.2 14:53:10 10° S 14:57:03 37° ESE 15:00:20 10° NE
Cosmos 1745 Rocket 4.1 14:51:50 10° N 14:58:08 67° E 15:04:27 10° SSE
USA 59 Rocket 0.3 14:54:32 10° SW 14:58:17 52° NW 15:01:20 10° NNE
NOSS 3-1 (C) 4.4 14:56:59 12° SE 14:58:25 13° ESE 15:00:46 10° ENE
Timation 2 Rocket 4.4 14:52:31 10° S 14:58:26 45° ESE 15:04:38 10° NE
YAOGAN 11 4.2 14:54:44 10° NNE 14:59:02 53° E 15:03:13 10° S
Meteor 1-13 Rocket 4.4 15:01:34 10° S 15:07:31 89° W 15:13:29 10° N
Iridium 4 Rocket 3.2 15:03:45 10° S 15:08:41 77° E 15:13:15 10° N
USA 308 3.9 15:09:15 10° NNW 15:09:31 10° N 15:09:49 10° N
NOSS 2-1 (D) 4.0 15:05:47 10° SW 15:09:36 49° NW 15:12:41 10° NNE
Cosmos 1400 Rocket 4.2 15:08:39 10° NNE 15:11:29 21° ENE 15:13:21 15° ESE
SPOT 3 Rocket 3.7 15:14:53 15° SSE 15:19:05 63° ENE 15:24:11 10° N
Cosmos 1680 Rocket 3.7 15:14:03 10° SSW 15:19:14 76° WNW 15:24:28 10° NNE
Cosmos 1624 Rocket 4.0 15:15:35 10° NNW 15:20:55 82° ENE 15:25:06 17° SSE
Cosmos 2344 3.9 15:13:53 10° SW 15:21:52 70° NW 15:29:02 10° NE
Okean-O 3.0 15:19:11 10° S 15:23:24 61° WSW 15:27:45 10° NNW
Cosmos 2369 Rocket 3.8 15:25:51 14° ESE 15:27:13 16° E 15:30:26 10° ENE
SL-8 R/B 4.2 15:22:44 10° W 15:27:24 60° NNW 15:32:06 10° ENE
ARIANE 6 FM1 Upper Stage 2.9 15:23:46 10° SSW 15:27:47 45° ESE 15:31:45 10° NE
USA 245 2.3 15:27:59 30° SE 15:29:00 58° ENE 15:31:21 10° N
Meteor 1-21 4.2 15:25:19 10° S 15:30:56 89° W 15:36:41 10° N
Cosmos 2056 Rocket 3.5 15:26:13 10° NNW 15:31:19 79° WSW 15:35:09 18° SSE
Cosmos 1953 3.6 15:31:22 10° NNW 15:34:34 32° W 15:37:45 10° SSW
Cosmos 1328 Rocket 4.2 15:31:07 10° SSW 15:35:21 53° W 15:39:35 10° N
SWAS 4.5 15:32:36 10° SSW 15:36:37 73° WNW 15:40:41 10° NNE
Cosmos 1470 Rocket 3.5 15:34:10 10° N 15:38:37 83° E 15:41:28 22° SSE
CZ-4B R/B 3.7 15:36:28 21° SSE 15:39:58 66° ENE 15:45:11 10° N
Ariane Rocket 3.0 15:36:44 20° SSE 15:40:13 74° ENE 15:45:18 10° N
USA 186 2.4 15:39:42 21° SW 15:40:17 25° W 15:41:59 10° NW
Cosmos 1441 Rocket 3.3 15:41:44 32° SE 15:42:34 39° E 15:45:36 10° NNE
Okean 2 3.2 15:42:27 16° SSW 15:45:27 80° W 15:49:19 10° N
Terra 4.3 15:42:43 10° SW 15:45:39 16° W 15:48:36 10° NW
Cosmos 1933 Rocket 4.1 15:41:47 10° N 15:45:55 41° ENE 15:47:52 26° SE
Okean O Rocket 2.9 15:41:58 10° SSW 15:45:57 35° W 15:50:00 10° NNW
COSMOS 2406 4.0 15:41:27 10° NNW 15:46:51 42° ENE 15:50:24 20° ESE
CZ-4B R/B 2.9 15:48:19 25° S 15:50:35 79° W 15:54:37 10° NNW
Okean 3 3.4 15:49:49 28° SSE 15:51:39 55° E 15:55:36 10° NNE
Cosmos 614 Rocket 4.0 15:55:48 23° S 15:58:45 54° ESE 16:03:41 10° NNE
Cosmos 2315 Rocket 4.5 15:53:50 10° SSW 15:59:57 60° W 16:06:05 10° N
GP-B 4.5 15:56:20 10° NNW 16:00:20 35° W 16:04:18 10° SSW
Cosmos 967 Rocket 4.5 15:55:21 10° SSW 16:01:43 66° ESE 16:08:08 10° NE
COSMOS 2455 4.0 16:01:44 21° ESE 16:02:42 22° ESE 16:07:11 10° ENE
Helios 1A 4.0 16:06:51 10° NE 16:10:13 26° E 16:10:27 26° ESE
Cosmos 1110 Rocket 3.9 16:06:49 10° NNW 16:12:00 83° WSW 16:14:30 31° SSE
Cosmos 1869 Rocket 3.5 16:14:02 10° N 16:18:21 68° E 16:19:48 40° SSE
USA 276 4.4 16:17:14 10° NW 16:18:53 17° N 16:20:39 10° NE
Cosmos 468 4.4 16:18:26 22° SSW 16:21:53 84° ESE 16:27:14 10° NNE
ATLAS 5 CENTAUR R/B 1.9 16:22:03 11° WSW 16:24:39 39° NW 16:27:32 10° NNE
Cosmos 1733 Rocket 4.1 16:21:34 10° NNE 16:25:25 31° ENE 16:26:28 28° ESE
Cosmos 1452 Rocket 3.4 16:23:23 10° NNW 16:28:41 88° ENE 16:30:50 37° SSE
Cosmos 1818 3.8 16:28:05 35° SSE 16:29:55 49° ESE 16:35:10 10° NE
SL-4 R/B 3.5 16:26:59 10° W 16:29:57 29° NNW 16:32:49 10° NE
Cosmos 1328 3.5 16:30:10 58° ESE 16:30:25 60° E 16:33:53 10° NNE
Cosmos 1707 Rocket 4.5 16:30:23 30° ESE 16:30:57 31° E 16:34:52 10° NNE
Cosmos 1331 Rocket 4.2 16:26:11 10° NNW 16:31:16 60° WSW 16:33:29 33° S
Cosmos 2184 Rocket 4.0 16:24:58 10° N 16:31:20 82° E 16:34:30 32° SSE
Cosmos 2154 Rocket 4.0 16:27:35 10° N 16:33:51 79° E 16:36:49 33° SSE
Cosmos 2082 Rocket 3.1 16:29:11 10° NW 16:34:23 39° WSW 16:37:05 24° SSW
Helios 1B rocket 3.6 16:37:17 22° ENE 16:37:37 22° ENE 16:40:22 10° NNE
CZ-2C R/B 2.9 16:38:03 39° W 16:38:03 39° W 16:40:26 10° NNW
ARIANE 5 R/B 4.1 16:40:27 22° E 16:41:46 26° ENE 16:45:24 10° N
Cosmos 1862 Rocket 3.8 16:42:42 43° ESE 16:43:15 46° E 16:47:22 10° NNE
Meteor 1-24 Rocket 4.4 16:43:57 33° SE 16:45:52 43° E 16:51:31 10° NNE
Cosmos 1400 Rocket 4.4 16:43:49 10° NW 16:46:43 23° W 16:47:48 20° WSW
NOSS 3-1 (A) 3.2 16:46:43 41° SE 16:46:59 42° ESE 16:51:54 10° NE
NOSS 3-1 (C) 3.1 16:44:10 14° SW 16:48:03 69° NW 16:53:29 10° NNE
CZ-3B R/B 3.6 16:54:30 36° SSE 16:56:23 44° ESE 17:12:10 10° NE
Lacrosse 4 Rocket 1.9 16:54:18 10° NNW 16:58:25 51° ENE 16:59:16 43° E
ALOS 2 3.7 16:58:46 30° E 16:59:48 33° ENE 17:03:45 10° N
Cosmos 2228 Rocket 3.5 17:00:12 43° ESE 17:00:34 44° E 17:04:48 10° NNE
Cosmos 2369 Rocket 2.3 17:07:34 29° SW 17:10:29 75° WNW 17:16:07 10° NNE
Cosmos 1315 Rocket 2.8 17:09:24 10° N 17:13:11 62° ENE 17:13:12 62° E
Cosmos 1302 Rocket 4.4 17:15:12 10° NNW 17:20:19 52° WSW 17:21:36 42° SSW
IRIDIUM 104 4.3 17:18:04 10° N 17:23:19 74° E 17:24:32 52° SSE
Cosmos 2297 3.9 17:21:12 29° SW 17:24:09 68° WNW 17:29:53 10° NNE
Cosmos 220 Rocket 3.7 17:23:10 10° NNW 17:27:22 87° ENE 17:27:34 81° SE
Meteor 2-5 Rocket 3.7 17:27:11 47° S 17:29:01 83° E 17:34:58 10° NNE
USA 290 3.4 17:25:59 10° NNW 17:28:11 37° WNW 17:28:11 37° WNW
COSMOS 2406 4.3 17:26:03 10° NW 17:30:56 30° WSW 17:32:25 27° SW
Cosmos 2366 rocket 4.1 17:25:01 10° N 17:31:20 70° E 17:33:27 43° SSE
CZ-2C R/B 3.8 17:26:57 10° N 17:31:40 76° WNW 17:32:41 54° SW
IRIDIUM 114 4.2 17:27:13 10° N 17:32:29 89° E 17:33:41 55° S
Cosmos 2327 Rocket 4.4 17:28:05 10° N 17:34:10 79° W 17:36:08 45° S
PSLV R/B 3.6 17:30:03 10° NNE 17:34:42 70° ESE 17:35:11 64° SE
Cosmos 1140 Rocket 3.7 17:34:55 47° ESE 17:35:25 49° ESE 17:40:20 10° NNE
IRIDIUM 103 4.3 17:36:24 10° N 17:41:37 76° W 17:42:49 53° SSW
Okean 1-7 4.0 17:40:44 32° WSW 17:41:39 36° WNW 17:45:36 10° N
Cosmos 1821 Rocket 4.2 17:36:13 10° N 17:42:14 57° ENE 17:44:15 39° SE
Cosmos 371 Rocket 4.5 17:42:15 28° E 17:42:15 28° E 17:46:20 10° NE
Cosmos 1992 Rocket 4.1 17:38:15 10° NNW 17:43:21 58° WSW 17:44:14 50° SW
CZ-2C R/B 3.1 17:39:40 10° NNE 17:44:46 56° E 17:45:27 51° SE
Spot 4 3.8 17:44:35 59° SSW 17:45:20 70° WSW 17:50:10 10° NNW
Meteor 2-15 4.4 17:40:15 10° N 17:46:19 78° W 17:48:08 47° S
Cosmos 2181 Rocket 4.1 17:45:13 45° SSE 17:47:11 67° E 17:53:34 10° NNE
COSMOS 2455 3.1 17:44:48 27° SW 17:48:05 64° WNW 17:54:05 10° NNE
Cosmos 1300 Rocket 4.1 17:45:13 10° N 17:49:22 45° ENE 17:49:44 44° E
Lacrosse 5 rocket 3.7 17:52:39 10° NNW 17:55:07 18° NNE 17:57:32 10° ENE
Cosmos 2218 Rocket 3.9 17:52:46 10° N 17:59:04 80° W 18:00:58 48° S
Cosmos 1356 Rocket 3.6 17:56:24 10° NNW 18:00:16 57° W 18:00:16 57° W
Cosmos 1023 Rocket 4.3 18:05:02 58° SW 18:06:02 82° WNW 18:11:09 10° NNE
SL-4 R/B 4.3 18:05:30 10° NW 18:07:54 19° N 18:10:13 10° NE
Helios 1B rocket 4.0 18:11:09 20° WNW 18:11:09 20° WNW 18:13:10 10° NW
Meteor 2-8 Rocket 4.5 18:05:14 10° N 18:11:24 75° E 18:13:21 46° SSE
Cosmos 1703 Rocket 3.7 18:12:34 57° WSW 18:12:58 60° W 18:17:22 10° N
SL-8 Rocket 4.4 18:09:57 10° NNW 18:15:51 49° W 18:17:41 38° SW
CZ-2C R/B 2.6 18:14:43 53° SSE 18:15:57 79° ENE 18:21:18 10° N
ARIANE 5 R/B 3.7 18:17:49 31° W 18:17:56 31° W 18:21:51 10° NNW
ACS3 Solar Sail 1.8 18:12:34 10° NNE 18:18:13 62° E 18:19:41 47° SSE
USA 215 3.4 18:14:41 15° ESE 18:20:14 75° NE 18:26:45 10° NW
Cosmos 381 Rocket 4.5 18:20:22 47° S 18:22:13 72° ESE 18:28:37 10° NNE
MetOp-A 3.3 18:23:43 71° NW 18:23:43 71° NW 18:27:11 10° NNW
Gbstr 26 Del rocket 4.0 18:25:37 49° S 18:27:08 62° SE 18:34:13 10° ENE
Landsat 5 3.9 18:24:31 10° NNE 18:27:45 44° E 18:27:45 44° E
Cosmos 540 Rocket 3.7 18:24:27 10° NNW 18:29:30 61° ENE 18:30:59 42° SE
Cosmos 2084 Rocket 3.6 18:34:12 54° E 18:34:12 54° E 18:37:40 10° NE
Lacrosse 4 Rocket 3.6 18:33:12 10° WNW 18:34:39 14° W 18:34:39 14° W
CRYOSAT 2 4.2 18:35:17 64° SSW 18:36:02 82° W 18:40:57 10° N
ALOS 2 4.1 18:36:10 23° W 18:36:10 23° W 18:39:43 10° NW
Cosmos 1346 Rocket 2.9 18:38:40 62° NE 18:38:40 62° NE 18:41:54 10° NNE
Cosmos 2251 Rocket 4.2 18:45:09 38° SE 18:46:14 43° ESE 18:51:16 10° NNE
SJ 16-02 1.0 18:48:00 81° SSW 18:48:12 90° WNW 18:52:29 10° NNE
Cosmos 2239 Rocket 4.4 18:45:22 10° NNW 18:51:30 71° W 18:53:21 46° SSW
SL-8 R/B 3.6 18:48:06 10° WNW 18:52:52 82° NNE 18:57:37 10° ESE
GEOS 3 Rocket 3.8 18:50:29 29° SE 18:53:17 76° NE 18:58:41 10° NW
Cosmos 1934 Rocket 4.1 18:48:20 10° N 18:54:43 74° E 18:57:20 38° SSE
Cosmos 2297 Rocket 2.7 18:50:21 10° NNW 18:55:55 55° ENE 18:59:15 24° SE
Cosmos 304 Rocket 4.3 18:55:18 40° WSW 18:56:26 48° WNW 19:01:03 10° N
BREEZE-M DEB (TANK) 4.2 18:36:22 10° WNW 18:57:43 76° NNE 19:02:06 10° ESE
Cosmos 2242 Rocket 3.5 18:59:54 66° SSE 19:00:24 76° E 19:04:50 10° NNE
Cosmos 921 Rocket 4.1 19:02:36 30° W 19:03:20 32° WNW 19:07:05 10° N
Cosmos 1980 Rocket 4.1 19:01:49 15° SE 19:03:57 18° E 19:07:37 10° ENE
ATLAS 3B R/B 3.4 19:05:35 34° SSE 19:08:33 50° ESE 19:16:04 10° NE
IDEFIX/ARIANE 42P 3.9 19:05:16 10° NE 19:09:47 29° E 19:11:47 23° SE
Cosmos 407 Rocket 3.9 19:10:10 38° WSW 19:11:41 51° WNW 19:16:42 10° N
CENTAUR R/B 3.4 19:07:21 10° NW 19:15:47 79° NE 19:25:21 10° SE
USA 308 4.5 19:13:31 10° NW 19:16:58 32° NNE 19:20:47 10° E
Cosmos 332 Rocket 3.9 19:18:04 49° SSE 19:19:03 61° ESE 19:23:44 10° NNE
Cosmos 371 Rocket 4.5 19:20:40 26° W 19:22:19 33° WNW 19:26:41 10° N
Cosmos 1656 4.3 19:21:59 31° WSW 19:24:13 47° WNW 19:29:37 10° NNE
BREEZE-M DEB (TANK) 3.3 19:20:05 10° WNW 19:25:15 35° WSW 19:25:15 35° WSW
NOSS 2-2 (E) 3.5 19:23:18 10° NW 19:27:09 85° NE 19:29:44 28° SE
Centaur D AC-294.419:34:20SE19:34:20SE19:17:26SW
Cosmos 2221 Rocket 4.3 19:28:56 35° SE 19:30:20 47° E 19:34:41 10° NNE
Meteor 1-11 4.4 19:28:29 40° SW 19:30:25 64° WNW 19:36:09 10° N
Cosmos 1763 Rocket 4.2 19:26:12 10° NW 19:30:41 33° WSW 19:31:04 33° WSW
USA 32 4.5 19:26:56 10° NNW 19:31:55 47° W 19:33:13 39° SW
Lacrosse 5 rocket 1.2 19:28:34 10° NW 19:31:19 53° WNW 19:31:19 53° WNW
Cosmos 1954 Rocket 3.9 19:33:09 46° SSW 19:34:45 88° WNW 19:39:55 10° NNE
Cosmos 1190 Rocket 4.0 19:36:12 42° SW 19:37:56 70° WNW 19:43:09 10° NNE
Cosmos 1378 Rocket 3.9 19:38:26 44° WSW 19:39:09 49° WNW 19:43:19 10° N
NOSS 2-2 (D) 3.8 19:35:35 10° NW 19:39:27 51° SW 19:40:00 48° SSW
Cosmos 405 Rocket 3.3 19:40:03 34° NW 19:40:03 34° NW 19:42:21 10° N
SL-4 R/B 3.0 19:42:50 10° NW 19:45:47 34° NNE 19:48:39 10° E
Sich 1 Rocket 3.9 19:41:25 10° N 19:45:54 62° E 19:47:57 30° SSE
Cosmos 1455 Rocket 4.3 19:41:54 10° N 19:45:56 36° ENE 19:48:49 17° SE
Meteor 2-1 Rocket 4.3 19:40:33 10° NNW 19:46:25 81° W 19:49:18 32° S
Cosmos 292 Rocket 3.7 19:53:25 41° S 19:55:02 79° ESE 19:59:47 10° NNE
Cosmos 1697 Rocket 2.7 19:55:22 35° SW 19:57:50 76° WNW 20:03:28 10° NNE
ACS3 Solar Sail 3.3 19:55:47 10° NNW 19:59:56 21° WNW 20:03:00 14° WSW
Cosmos 1605 Rocket 4.1 19:55:22 10° NNW 20:01:29 61° W 20:04:27 30° SSW
USA 229 DEB 3.7 19:58:08 27° WSW 20:01:30 63° NW 20:08:09 10° NNE
USA 229 3.7 19:58:11 27° WSW 20:01:32 64° NW 20:08:12 10° NNE
USA 215 3.8 20:01:58 29° SSW 20:03:35 33° SW 20:09:21 10° WNW
Meteor 2-21 Rocket 4.5 20:00:40 28° S 20:04:11 82° E 20:10:24 10° N
FENGYUN 3A 3.7 20:04:46 10° NNE 20:10:09 77° ESE 20:13:06 28° S
Cosmos 2227 Rocket 2.2 20:05:08 10° NNW 20:10:49 87° ENE 20:16:17 11° SSE
ISS -2.7 20:13:21 31° SE 20:13:30 31° SE 20:16:34 10° ENE
ADEOS Rocket 2.8 20:09:57 10° N 20:15:49 75° WNW 20:18:49 28° SSW
Resurs 1-4 Rocket 3.7 20:11:47 10° NE 20:16:18 28° E 20:20:48 10° SSE
DELTA 2 R/B (1) 4.4 20:16:24 27° S 20:17:54 31° SSE 20:22:44 10° E
MSX 3.9 20:12:59 10° N 20:18:44 71° WNW 20:21:57 27° SSW
Cosmos 1025 Rocket 4.1 20:18:00 26° WSW 20:19:20 31° WNW 20:23:14 10° NNW
Dummy Sat-01 4.5 20:18:23 10° N 20:22:04 87° E 20:23:36 33° S
SL-24 R/B - RUBIN 2 3.7 20:19:04 10° NW 20:23:43 86° WSW 20:28:50 10° SSE
OPS 6432 4.3 20:22:15 10° NW 20:25:35 59° SW 20:26:39 36° S
NPP 3.6 20:21:09 10° NNE 20:26:34 79° WNW 20:29:46 25° SSW
SJ 16-02 3.9 20:26:48 10° NW 20:26:57 10° NW 20:27:05 10° NW
NOSS 3-2 (A) 4.2 20:19:29 10° NW 20:26:58 84° NE 20:35:54 10° SE
Cosmos 968 Rocket 3.7 20:27:46 27° SW 20:30:33 63° WNW 20:35:46 10° NNE
ALOS 3.7 20:27:05 10° NNE 20:31:09 31° E 20:35:09 10° SSE
Okean 2 Rocket 4.0 20:27:42 10° NNW 20:31:35 32° W 20:32:53 26° WSW
Cosmos 2292 Rocket 3.7 20:32:43 32° SW 20:33:55 45° WNW 20:38:01 10° N
SL-8 R/B 4.5 20:30:48 10° W 20:34:48 27° SW 20:34:56 27° SW
SL-19 R/B 3.6 20:36:47 22° SSE 20:38:39 83° ENE 20:41:42 10° NNW
USA 308 2.6 20:35:01 10° WNW 20:39:09 70° SW 20:43:06 10° SE
Cosmos 2297 Rocket 3.4 20:35:13 10° NW 20:39:30 22° W 20:40:59 20° WSW
Cosmos 2228 2.9 20:36:03 10° N 20:40:18 84° W 20:43:22 18° S
Okean 1 Rocket 4.1 20:36:56 10° NNW 20:40:35 27° W 20:41:54 23° WSW
H-2A R/B 2.9 20:41:28 10° NNE 20:46:22 44° E 20:51:06 10° S
Cosmos 2219 3.8 20:40:58 10° NNW 20:46:34 58° ENE 20:52:11 10° SE
Cosmos 1980 Rocket 2.3 20:43:33 22° SW 20:47:17 69° WNW 20:52:59 10° NNE
Cosmos 841 Rocket 4.4 20:43:24 10° NW 20:47:52 30° W 20:50:06 21° SW
IDEFIX/ARIANE 42P 3.4 20:44:29 10° N 20:49:16 37° WNW 20:52:27 19° SW
Cosmos 2263 Rocket 2.1 20:44:56 10° NNW 20:50:31 70° WSW 20:56:06 10° SSE
Envisat 3.1 20:46:17 10° NNE 20:51:22 77° ESE 20:55:31 15° S
MOS 1-B Rocket 4.4 20:46:33 10° N 20:52:00 46° WNW 20:55:48 18° SW
Cosmos 1975 Rocket 3.0 20:49:37 22° SSW 20:52:16 68° W 20:56:33 10° N
Cosmos 1459 Rocket 4.0 20:46:07 10° N 20:52:22 76° W 20:58:40 10° S
Cosmos 1741 Rocket 4.1 20:51:00 21° SSW 20:54:35 69° WNW 20:59:52 10° NNE
Cosmos 2123 Rocket 4.0 20:49:43 15° S 20:55:02 85° W 21:01:22 10° N
Cosmos 1437 Rocket 3.1 20:52:46 10° NNW 20:55:55 36° W 20:57:18 25° SW
Cosmos 2237 4.5 20:51:26 16° S 20:55:59 65° ESE 21:01:42 10° NNE
Cosmos 1850 Rocket 4.2 20:54:30 20° SW 20:57:59 60° WNW 21:03:07 10° NNE
Cosmos 1782 3.7 20:55:37 10° NNW 20:58:33 25° W 20:59:39 21° WSW
ATLAS 3B R/B 3.7 20:52:48 13° WSW 20:59:27 47° NW 21:07:02 10° NNE
Cosmos 1862 4.0 21:03:48 20° WSW 21:05:32 31° WNW 21:08:44 10° NNW
CENTAUR R/B 4.1 20:58:44 10° NW 21:06:08 31° WSW 21:14:05 10° SSW
Cosmos 2173 Rocket 4.2 21:00:10 10° NNW 21:06:15 55° W 21:12:04 11° SSW
MOZ.5/SAFIR/RUBIN 5/SL-8 3.9 21:05:48 11° S 21:10:11 55° W 21:14:46 10° NNW
Cosmos 2360 Rocket 4.3 21:08:22 10° SSE 21:12:28 21° E 21:16:35 10° NE
ADEOS II 2.5 21:08:53 10° NNE 21:14:04 61° ESE 21:19:13 10° S
CZ-2D R/B 2.2 21:13:27 10° NNE 21:18:53 90° N 21:24:13 10° SSW
NOSS 3-2 (C) 4.3 21:11:27 10° NW 21:18:55 81° NE 21:27:52 10° SE
Cosmos 2082 3.7 21:13:25 10° NNW 21:19:06 88° ENE 21:24:47 10° SSE
SeaSat 1 4.1 21:16:13 10° ESE 21:20:43 38° NE 21:25:14 10° NNW
SL-08 R/B 4.4 21:14:48 10° N 21:20:58 84° W 21:27:02 10° S
Cosmos 2016 Rocket 4.0 21:15:26 10° NNW 21:21:41 72° W 21:27:58 10° S
SL-4 R/B 1.8 21:20:06 10° WNW 21:23:00 35° SW 21:25:52 10° SSE
SL-16 R/B 2.8 21:20:59 10° S 21:26:28 54° ESE 21:31:58 10° NNE
Cosmos 158 Rocket 4.0 21:21:49 10° NNW 21:26:31 50° WSW 21:31:10 10° S
Cosmos 2058 4.0 21:24:39 14° SW 21:27:16 26° WNW 21:30:38 10° NNW
Cosmos 2061 Rocket 4.2 21:23:22 10° N 21:29:46 83° E 21:36:03 10° S
Tiangong 0.4 21:30:48 10° SSE 21:31:32 11° SSE 21:32:18 10° SE
Meteor 2-3 Rocket 4.2 21:26:27 10° S 21:32:00 62° E 21:37:39 10° NNE
Spot 2 4.0 21:32:03 10° SSE 21:36:06 82° ENE 21:40:06 10° NNW
Cosmos 1725 Rocket 4.3 21:31:05 10° NNW 21:37:04 50° W 21:43:05 10° SSW
Cosmos 2278 4.4 21:35:40 10° S 21:41:11 54° ESE 21:46:45 10° NNE
Cosmos 2369 4.2 21:37:33 10° SW 21:43:01 50° WNW 21:48:35 10° NNE
Cosmos 1544 Rocket 4.0 21:41:09 10° NNW 21:45:20 43° W 21:49:31 10° SSW
Cosmos 2333 Rocket 2.4 21:44:31 10° SSW 21:50:09 75° ESE 21:55:53 10° NNE
ISS -2.7 21:47:00 10° W 21:50:14 41° NNW 21:53:29 10° NE
AQUA 4.4 21:48:19 10° NNE 21:52:57 58° E 21:57:32 10° S
Cosmos 2227 Rocket 3.9 21:51:28 10° WNW 21:53:59 13° W 21:56:31 10° WSW
DNEPR-1 R/B 3.6 21:50:24 10° SSW 21:54:34 88° ESE 21:59:09 10° NE
Resurs 1-4 Rocket 2.8 21:51:17 10° N 21:56:07 39° WNW 22:00:57 10° SW
Cosmos 1933 4.2 21:53:52 10° NNW 21:57:10 28° W 22:00:25 10° SSW
BREEZE-M DEB (TANK) 4.4 21:46:02 10° WNW 21:57:59 47° SW 22:01:52 10° SSE
